Regional Weather Roundup
Issued by NWS

Home | Current Version | Previous Version | Graphics & Text | Print | Product List | Glossary On
Versions: 1 2 3 4 5 6 7 8 9 10 11 12 13 14 15 16 17 18 19 20 21 22 23 24 25 26 27 28 29 30 31 32 33 34 35 36 37 38 39 40 41 42 43 44 45 46 47 48 49 50
000
ASUS43 KLOT 241903
RWRIL

ILLINOIS REGIONAL WEATHER ROUNDUP
NATIONAL WEATHER SERVICE CHICAGO/ROMEOVILLE IL
200 PM CDT WED MAY 24 2017

NOTE: "FAIR" INDICATES FEW OR NO CLOUDS BELOW 12,000 FEET WITH NO
SIGNIFICANT WEATHER AND/OR OBSTRUCTIONS TO VISIBILITY.

* THESE STATIONS ARE NOT UNDER NWS QUALITY CONTROL. THEY ALSO MAY NOT
  REPORT WEATHER SUCH AS PRECIPITATION OR FOG.

ILZ001-002-007-009-015-016-024-242000-
NORTHWEST ILLINOIS

CITY           SKY/WX    TMP DP  RH WIND       PRES   REMARKS
MOLINE         CLOUDY    62  50  64 N9        29.60S
STERLING*      CLOUDY    58  54  86 N10       29.61S
SAVANNA*       CLOUDY    55  52  89 N8        29.63R
$$

ILZ003-004-008-010-011-017-018-242000-
NORTH CENTRAL ILLINOIS

CITY           SKY/WX    TMP DP  RH WIND       PRES   REMARKS
ROCKFORD       CLOUDY    59  53  80 N12       29.61S
FREEPORT*      CLOUDY    57  52  83 N8        29.63S
ROCHELLE*      CLOUDY    56  54  90 N13       29.59F
DE KALB*       CLOUDY    58  53  82 NE15      29.59S
PERU*          CLOUDY    58  53  83 N10       29.57F
$$

ILZ005-006-012>014-019>023-242000-
NORTHEAST ILLINOIS

CITY           SKY/WX    TMP DP  RH WIND       PRES   REMARKS
CHICAGO-OHARE  CLOUDY    60  51  72 NE15G23   29.55F
CHICAGO-MIDWAY CLOUDY    59  52  77 N16G25    29.54F
AURORA         CLOUDY    62  53  72 N13       29.56F
LANSING*       CLOUDY    57  54  88 N9        29.54S
JOLIET*        CLOUDY    62  55  76 N10       29.54F
WAUKEGAN       CLOUDY    59  51  75 N17G30    29.56F
DUPAGE AIRPORT CLOUDY    60  53  77 NE17      29.55S
KANKAKEE*      CLOUDY    60  54  79 N10       29.54S
WHEELING       CLOUDY    60  52  74 N16G23    29.57F
MORRIS*        CLOUDY    61  53  75 NE6       29.54S
ROMEOVILLE*    CLOUDY    60  56  87 NE14      29.54S
NORTHERLY ISL    N/A     55  50  83 MISG        N/A
$$

LMZ740>746-242000-
SOUTHERN LAKE MICHIGAN

STATION/POSITION SKY/WX   TEMP    WIND        PRES    VSBY  WAVE
                          AIR SEA DIR/SP/G                  HT/PER
                          (F)     (DEG/KT/KT) (MB)    (MI)  (FT/S)
SOUTHERN BUOY              49 45   20/ 17/ 19 1000.9          3/ 4
WILMETTE HARBOR            49 52                N/A           4/ 4
HARRISON CRIB              52     360/ 20/ 22   N/A
BURNHAM HARBOR             55     340/ 16/ 17   N/A
CALUMET HARBOR             53     340/ 13/ 17 1000.2F
BURNS HARBOR               52     360/  9/ 12 1000.3F
MICHIGAN CITY              53     360/ 11/ 12   N/A
MICHIGAN CITY 6N           52 54   10/ 14/ 17   N/A           4/ 4
ST. JOSEPH                 55 56   20/ 16/ 19  999.3F         3/ 4
$$

ILZ025>027-034>036-040-047-049-050-058-095>099-242000-
WEST-CENTRAL ILLINOIS

CITY           SKY/WX    TMP DP  RH WIND       PRES   REMARKS
QUINCY         PTSUNNY   60  51  72 N10       29.60S
GALESBURG*     CLOUDY    63  52  67 N16G25    29.58S
MACOMB*        CLOUDY    60  55  82 NW7       29.60F
JACKSONVILLE*  PTSUNNY   62  51  66 NW15      29.56F
PITTSFIELD*    MOSUNNY   64  50  58 NW9       29.59F
$$

ILZ028>032-037-038-041>044-048-051>054-059>061-242000-
CENTRAL ILLINOIS

CITY           SKY/WX    TMP DP  RH WIND       PRES   REMARKS
PONTIAC        CLOUDY    61  57  87 N14       29.55S
BLOOMINGTON    CLOUDY    62  54  74 N12       29.55S
DECATUR        CLOUDY    65  55  70 N10       29.53S
PEORIA         CLOUDY    61  54  77 N9G18     29.56S
LACON*         CLOUDY    58  55  87 NW12      29.57S
LINCOLN*       MOSUNNY   68  56  67 N9G18     29.54S
SPRINGFIELD    PTSUNNY   66  54  65 NW10      29.55S
TAYLORVILLE    CLOUDY    64  53  67 NW10      29.54S
$$

ILZ033-039-045-046-055>057-062-063-242000-
EAST-CENTRAL ILLINOIS

CITY           SKY/WX    TMP DP  RH WIND       PRES   REMARKS
CHAMPAIGN      RAIN      59  56  89 NW8       29.52S FOG
RANTOUL*       DRIZZLE   61  57  87 N7        29.52S
MATTOON        LGT RAIN  59  58  96 NW14      29.51F
$$

ILZ079-100>102-242000-
SOUTHWEST ILLINOIS

CITY           SKY/WX    TMP DP  RH WIND       PRES   REMARKS
BELLEVILLE     MOSUNNY   67  50  53 NW12      29.56F
CAHOKIA*       MOSUNNY   68  46  45 NW13      29.56F
SPARTA*        CLOUDY    62  48  61 NW12      29.57S
$$

ILZ064>066-069>071-074>076-080>082-084>086-088>090-092>094-242000-
SOUTH-CENTRAL ILLINOIS

CITY           SKY/WX    TMP DP  RH WIND       PRES   REMARKS
CARBONDALE     CLOUDY    65  49  56 NW12      29.54S
CAIRO*         PTSUNNY   68  48  49 NW13G18   29.54S
EFFINGHAM*     LGT RAIN  61  56  85 NW6       29.53F
MARION         PTSUNNY   66  48  52 NW9       29.54S
MT. VERNON       N/A     63  52  67 VRB3      29.53F
CENTRALIA*     PTSUNNY   64  53  66 N9        29.53S
SALEM*         CLOUDY    63  52  67 NW8       29.54S
$$

ILZ067-068-072-073-078-083-087-091-242000-
SOUTHEAST ILLINOIS

CITY           SKY/WX    TMP DP  RH WIND       PRES   REMARKS
LAWRENCEVILLE  HVY RAIN  58  57  97 NW9       29.49S FOG
FLORA*         LGT RAIN  62  55  76 NW9       29.52F
FAIRFIELD*     CLOUDY    62  53  72 NW5       29.51S
HARRISBURG*    CLOUDY    63  54  72 NW10      29.53S
ROBINSON*      LGT RAIN  57  56  97 NW12      29.50S
CARMI*         DRIZZLE   59  56  91 NW7       29.51S
$$

ABBREVIATIONS USED IN REMARKS
   TC - TEMPERATURE IN CELSIUS
  WCI - WIND CHILL INDEX
   HX - HEAT INDEX
  VSB - VISIBILITY
$$





USA.gov is the U.S. government's official web portal to all federal, state and local government web resources and services.